OPS 4682 DEB, 13131

Orbit data source: Space-Track

OPS 4682 DEB, 13131 is space debris in LEO originally from a launch on Sat, 03 Apr 1965 UTC launched from the Air Force Western Test Range (AFWTR). Debris objects in space refer to the collection of defunct objects orbiting the Earth. Examples of debris include non-operational satellites, rocket bodies, and fragments generated from explosions, collisions, or faulty payload assembly.

Loading next visibility...
Identifier
13131, 1965-027H
Orbit
LEO
Country
Flag of USUS
Related business
Manufacturer
Unknown
Mission
Spacecraft
Bus & Motor
Unknown
Mass
Unknown
Launch date (UTC)
1965-04-03 (61 years ago)
Launch vehicle
Unknown
Launch site
Air Force Western Test Range (AFWTR)
Object type
Payload
Rocket body
Debris
Shape & HBR
Unknown shape, 0.1 m
Radar Cross Section
Small (<0.1 m²)

Expand to show TLE details & history
Last TLE update: 20 hours ago

TLE from 20 hours ago
0 OPS 4682 DEB
1 13131U 65027H   25340.78969492 -.00000124  00000-0 -44984-3 0  9998
2 13131  90.2319 349.2788 0029004 213.8318 320.5844 12.97960963605747
Epoch: 2025-12-06T18:57Z
TLE epoch observation values (Epoch: 2025-12-06T18:57:09.641Z)
Latitude
5.71655°
Longitude
169.19934°
Altitude
1,255.293 km
Speed
7.236 km/s
True Right ascension
11h 17m 12s
True Declination
5° 41' 05"
Sunlit
Object was in daylight at epoch
Visualization orbit readout
Latitude
Unknown
Longitude
Unknown
Altitude
Unknown
Speed
Unknown
Apparent Right ascension
Unknown
Apparent Declination
Unknown
Sunlit
N/A
Visualization observer readout
Local Sidereal Time
12:45:27
Azimuth
Unknown
Elevation
Unknown
Doppler factor
Unknown
Orbital elements
Apogee altitude
1,289.391 km
Perigee altitude
1,245.042 km
Semi-major axis
7,645.353 km
Eccentricity
0.0029
Inclination
90.2319°
RAAN
349.2788°
Arg. of periapsis
213.8318°
True anomaly
320.37278°
Mean anomaly
320.5844°
Eccentric anomaly
320.47865°
Mean motion
3.24674 °/min
Orbital period
110.88 mins
BSTAR
-0.00044984
Loading maneuver chart data...
Computing Atmospheric mass density...
Loading historical data...
Loading historical data...
Loading historical data...
Loading historical data...
Loading historical data...
Loading historical data...
Loading historical data...

Documentation

Showing up to 5 results
|